Greybull, WY

3:12 PM MDT on August 27, 2016 (GMT -0600)
South Big Horn County

Weather History for KGEY - May, 2014

Change the Weather History Date:

Thursday, May 15, 2014

  Actual Average Record
Temperature  
Mean Temperature 61 °F 56 °F  
Max Temperature 73 °F 70 °F 87 °F (2012)
Min Temperature 49 °F 43 °F 35 °F (2004)
Degree Days  
Heating Degree Days 4 9  
Month to date heating degree days 210 170  
Since 1 July heating degree days 7556 7569  
Cooling Degree Days 0 0  
Month to date cooling degree days 0 0  
Year to date cooling degree days 0 1  
Growing Degree Days 11 (Base 50)    
Moisture  
Dew Point 37 °F    
Average Humidity 48    
Maximum Humidity 74    
Minimum Humidity 22    
Precipitation  
Precipitation 0.01 in 0.05 in 0.29 in (2015)
Month to date precipitation 0.43 0.59  
Year to date precipitation 1.58 2.11  
Sea Level Pressure  
Sea Level Pressure 30.10 in    
Wind  
Wind Speed 6 mph (South)    
Max Wind Speed 22 mph    
Max Gust Speed 27 mph    
Visibility 10 miles    
Events Rain    
T = Trace of Precipitation, MM = Missing Value Source: NWS Daily Summary

Daily Weather History Graph

Daily Weather History Graph

Search for Another Location

Airport or City:

Trip Planner

Search our weather history database for the weather conditions in past years. The results will help you decide how hot, cold, wet, or windy it might be!

Date:

Astronomy

May. 15, 2014 Rise Set
Actual Time 5:44 AM MDT 8:33 PM MDT
Civil Twilight 5:10 AM MDT 9:07 PM MDT
Nautical Twilight 4:28 AM MDT 9:50 PM MDT
Astronomical Twilight 3:38 AM MDT 10:40 PM MDT
Moon 9:44 PM MDT (5/15) 6:34 AM MDT (5/15)
Length of Visible Light 15h 56m
Length of Day
14h 48m
Full, 99% of the Moon is Illuminated
May 15
Full
May 21
Last Quarter
May 28
New
Jun 5
First Quarter
Jun 12
Full

Hourly Weather History & Observations

Time (MDT) Temp. Dew Point Humidity Pressure Visibility Wind Dir Wind Speed Gust Speed Precip Events Conditions
12:53 AM 54.0 °F 33.1 °F 45% 30.20 in 10.0 mi NW 4.6 mph - N/A   Overcast
1:53 AM 53.1 °F 34.0 °F 48% 30.21 in 10.0 mi ESE 3.5 mph - N/A   Overcast
2:53 AM 52.0 °F 36.0 °F 54% 30.21 in 10.0 mi Calm Calm - 0.00 in Rain Light Rain
3:53 AM 54.0 °F 36.0 °F 51% 30.21 in 10.0 mi ESE 4.6 mph - 0.00 in   Overcast
4:53 AM 51.1 °F 41.0 °F 68% 30.20 in 10.0 mi SSE 8.1 mph - 0.01 in   Overcast
5:53 AM 50.0 °F 41.0 °F 71% 30.19 in 10.0 mi East 4.6 mph - N/A   Overcast
6:53 AM 50.0 °F 42.1 °F 74% 30.21 in 10.0 mi SW 3.5 mph - N/A   Overcast
7:53 AM 52.0 °F 42.1 °F 69% 30.21 in 10.0 mi SSE 5.8 mph - N/A   Overcast
8:53 AM 55.0 °F 42.1 °F 62% 30.20 in 10.0 mi SSE 6.9 mph - N/A   Scattered Clouds
9:53 AM 57.9 °F 41.0 °F 53% 30.18 in 10.0 mi Variable 4.6 mph - N/A   Clear
10:53 AM 60.1 °F 39.0 °F 46% 30.16 in 10.0 mi Variable 3.5 mph - N/A   Clear
11:53 AM 63.0 °F 36.0 °F 37% 30.14 in 10.0 mi North - - N/A   Clear
1:53 PM 68.0 °F 35.1 °F 30% 30.09 in 10.0 mi SSW 8.1 mph - N/A   Clear
2:53 PM 69.1 °F 33.1 °F 26% 30.05 in 10.0 mi Variable 5.8 mph - N/A   Clear
3:53 PM 71.1 °F 33.1 °F 25% 30.01 in 10.0 mi West 8.1 mph - N/A   Mostly Cloudy
4:53 PM 72.0 °F 30.9 °F 22% 29.98 in 10.0 mi North - - N/A   Clear
5:53 PM 72.0 °F 33.1 °F 24% 29.97 in 10.0 mi North 10.4 mph 19.6 mph N/A   Overcast
6:53 PM 69.1 °F 33.1 °F 26% 29.98 in 10.0 mi North 17.3 mph 20.7 mph N/A   Clear
7:53 PM 66.9 °F 35.1 °F 31% 29.97 in 10.0 mi Calm Calm - N/A   Clear
8:53 PM 63.0 °F 37.9 °F 40% 29.98 in 10.0 mi WSW 6.9 mph - N/A   Clear
9:53 PM 59.0 °F 37.0 °F 44% 29.98 in 10.0 mi WSW 6.9 mph - N/A   Clear
10:53 PM 57.0 °F 39.0 °F 51% 29.97 in 10.0 mi SSE 5.8 mph - N/A   Mostly Cloudy